[[{"header":{"parameterUnit":"m.s-1","parameterCategory":1,"la1":30.2991,"la2":30.254,"lo1":-89.0895,"lo2":-89.0444,"dy":0.0017,"dx":0.0017,"nx":28,"ny":28,"refTime":"2024-03-26T09:00:00:Z","depth":0,"parameterNumber":2,"parameterNumberName":"U-component_of_WINDS"},"data":[0,0,0,0,0,0,0,0,0,0,0,0,0,0,0,0,0,0,0,0,0,0,0,0,0,0,0,0,0,0,0,0,0,0,0,0,0,0,0,0,0,0,0,0,0,0,0,0,0,0,0,0,0,0,0,0,0,0,-1.4294,-1.4293,0,-1.4186,-1.4184,-1.4183,-1.41,-1.4099,-1.4098,-1.4098,-1.3982,-1.398,-1.3977,0,0,0,0,0,0,0,0,0,0,0,0,0,-1.442,-1.4419,-1.4294,-1.4292,-1.4291,-1.4186,-1.4184,-1.4183,-1.41,-1.4099,-1.4098,-1.4097,-1.3983,-1.398,-1.3977,0,0,0,0,0,0,0,0,0,0,0,0,0,-1.4344,-1.4418,-1.4294,-1.4237,-1.4231,-1.4186,-1.4184,-1.4182,-1.41,-1.4099,-1.4098,-1.4097,-1.3984,-1.398,-1.3977,-1.3978,0,0,-1.3966,-1.3964,0,0,0,0,0,0,0,0,-1.4349,-1.434,-1.4247,-1.4241,-1.4234,-1.4155,-1.4186,-1.4114,-1.4101,-1.415,-1.4098,-1.4096,-1.404,-1.4032,-1.4014,-1.3973,-1.3968,-1.3966,-1.3964,-1.3962,-1.3961,0,0,0,0,0,0,0,-1.4354,-1.4344,-1.4251,-1.4246,-1.4238,-1.4214,-1.4202,-1.4172,-1.4103,-1.4145,-1.4139,-1.4128,-1.4036,-1.4018,-1.4011,-1.3966,-1.3966,-1.3963,-1.396,-1.3959,-1.3914,-1.3915,0,0,0,0,0,0,-1.4369,-1.4349,-1.4254,-1.4248,-1.429,-1.4213,-1.42,-1.4182,-1.4103,-1.409,-1.4129,-1.4124,-1.4024,-1.4015,-1.4006,-1.4,-1.3962,-1.3959,-1.3957,-1.3913,-1.3914,-1.3915,0,0,0,0,0,0,-1.4372,-1.4361,-1.4259,-1.4296,-1.4282,-1.4212,-1.4193,-1.418,-1.4161,-1.409,-1.4077,-1.4123,-1.4023,-1.4011,-1.3985,-1.3995,-1.3957,-1.3954,-1.3912,-1.3913,-1.3915,-1.3988,0,0,0,0,0,0,-1.4376,-1.4363,-1.4365,-1.4297,-1.428,-1.4242,-1.4193,-1.4179,-1.4156,-1.4149,-1.4081,-1.4069,-1.4021,-1.3991,-1.3981,-1.3989,-1.3951,-1.3911,-1.3913,-1.3914,-1.3985,-1.3992,-1.3999,0,0,0,0,0,-1.4381,-1.439,-1.4366,-1.4355,-1.4281,-1.4243,-1.4233,-1.4179,-1.4157,-1.4157,-1.411,-1.4071,-1.3995,-1.3989,-1.3977,-1.3984,-1.391,-1.3912,-1.3914,-1.3982,-1.3991,-1.3998,0,0,0,0,0,0,-1.4461,-1.4381,-1.4353,-1.4341,-1.4299,-1.4229,-1.4228,-1.4191,-1.4154,-1.4149,-1.4082,-1.4067,-1.4047,-1.4012,-1.4007,-1.3978,-1.3947,-1.3947,-1.4002,-1.401,-1.4017,-1.4025,-1.3948,0,0,0,0,0,-1.4477,-1.4455,-1.4385,-1.4381,-1.4361,-1.4298,-1.4279,-1.4241,-1.4195,-1.4177,-1.4128,-1.4083,-1.4048,-1.4027,-1.3992,-1.3979,-1.396,-1.3977,-1.3984,-1.399,-1.3991,-1.3977,-1.3982,-1.3922,-1.3922,-1.3922,0,0,-1.4511,-1.4464,-1.4454,-1.4395,-1.4359,-1.4334,-1.4284,-1.4261,-1.4241,-1.4173,-1.4145,-1.4107,-1.4051,-1.4031,-1.4019,-1.4002,-1.4003,-1.3993,-1.3998,-1.3995,-1.398,-1.3985,-1.399,-1.3924,-1.3923,-1.3923,0,0,-1.4559,-1.4522,-1.4514,-1.4477,-1.4423,-1.438,-1.4377,-1.4312,-1.4284,-1.4255,-1.4202,-1.4175,-1.4118,-1.408,-1.4053,-1.4081,-1.4041,-1.407,-1.4106,-1.4094,-1.4098,-1.4102,-1.4109,-1.4113,-1.4071,-1.4072,-1.4072,0,-1.4607,-1.457,-1.4513,-1.4493,-1.4467,-1.4403,-1.4392,-1.4359,-1.4295,-1.4277,-1.4258,-1.4182,-1.414,-1.4108,-1.4114,-1.4095,-1.4087,-1.4079,-1.4103,-1.4106,-1.4109,-1.4115,-1.4118,-1.4075,-1.4075,-1.4075,-1.4074,0,-1.4631,-1.4605,-1.4604,-1.4544,-1.4518,-1.4502,-1.444,-1.4419,-1.4382,-1.434,-1.4308,-1.4255,-1.4206,-1.4195,-1.4159,-1.4155,-1.4146,-1.4116,-1.4083,-1.4119,-1.4123,-1.4126,-1.4081,-1.4079,-1.4078,-1.4077,0,0,-1.4729,-1.4635,-1.4636,-1.4606,-1.4539,-1.4517,-1.4495,-1.4448,-1.4431,-1.4387,-1.4365,-1.4315,-1.4286,-1.4255,-1.4213,-1.4202,-1.4223,-1.4172,-1.4169,-1.4182,-1.4212,-1.4235,-1.4239,-1.4196,-1.4196,-1.4197,-1.4216,0,-1.4766,-1.4728,-1.4673,-1.4651,-1.4625,-1.4562,-1.4542,-1.4497,-1.4456,-1.4425,-1.4377,-1.4343,-1.4308,-1.4288,-1.4274,-1.4224,-1.4228,-1.4222,-1.4172,-1.4171,-1.4188,-1.4242,-1.4267,-1.4288,-1.4218,-1.4218,-1.4218,0,-1.4805,-1.4765,-1.4741,-1.4672,-1.4659,-1.4643,-1.4593,-1.4565,-1.451,-1.448,-1.4444,-1.4397,-1.4367,-1.4337,-1.4292,-1.4289,-1.4264,-1.4236,-1.4235,-1.4228,-1.4197,-1.4235,-1.4294,-1.4297,-1.4221,-1.422,-1.422,0,-1.4877,-1.4817,-1.4793,-1.477,-1.469,-1.4679,-1.4645,-1.4589,-1.4562,-1.4517,-1.4498,-1.445,-1.4423,-1.4384,-1.4324,-1.4309,-1.4284,-1.425,-1.4256,-1.4257,-1.4255,-1.4256,-1.4309,-1.424,-1.424,-1.424,-1.424,0,-1.4923,-1.4911,-1.4824,-1.481,-1.4792,-1.4728,-1.4711,-1.467,-1.4619,-1.4593,-1.4534,-1.451,-1.4433,-1.4398,-1.435,-1.4318,-1.4307,-1.4279,-1.4266,-1.4284,-1.4288,-1.4268,-1.4264,-1.4241,-1.4241,-1.4241,-1.424,0,-1.5002,-1.4944,-1.4914,-1.484,-1.482,-1.481,-1.4744,-1.4726,-1.4679,-1.4646,-1.4635,-1.4561,-1.4517,-1.4453,-1.4389,-1.4356,-1.433,-1.4311,-1.435,-1.4342,-1.4351,-1.435,-1.4393,-1.4394,-1.4326,-1.4327,-1.4328,0,-1.5036,-1.5024,-1.4948,-1.4927,-1.4895,-1.4862,-1.4834,-1.4768,-1.4741,-1.4674,-1.4663,-1.4614,-1.4572,-1.4503,-1.4441,-1.439,-1.4368,-1.4386,-1.436,-1.4377,-1.4366,-1.4367,-1.4364,-1.4393,-1.4394,-1.4395,-1.4396,0,-1.51,-1.5071,-1.5035,-1.4988,-1.4957,-1.4915,-1.4871,-1.4856,-1.478,-1.4751,-1.4706,-1.4673,-1.4606,-1.4557,-1.4497,-1.4457,-1.4412,-1.4404,-1.4402,-1.442,-1.4443,-1.4428,-1.4366,-1.4404,-1.4403,-1.4402,-1.4402,-1.4402,-1.5156,-1.5142,-1.5085,-1.5045,-1.5005,-1.4964,-1.4942,-1.4892,-1.4854,-1.4796,-1.4758,-1.4714,-1.4653,-1.4568,-1.4529,-1.449,-1.4472,-1.4471,-1.447,-1.447,-1.4475,-1.4449,-1.4479,-1.4479,-1.4479,-1.4478,-1.4478,0,-1.5217,-1.5176,-1.514,-1.508,-1.5048,-1.5009,-1.4957,-1.4931,-1.4894,-1.4842,-1.4801,-1.4746,-1.4696,-1.463,-1.4574,-1.4556,-1.4533,-1.4543,-1.4544,-1.4534,-1.4496,-1.4502,-1.4562,-1.4562,-1.4562,-1.4562,-1.4562,-1.4562,-1.5244,-1.5217,-1.5181,-1.513,-1.5089,-1.5047,-1.5019,-1.4979,-1.4937,-1.488,-1.4839,-1.4796,-1.4736,-1.4675,-1.4626,-1.4607,-1.4589,-1.4605,-1.458,-1.4545,-1.4538,-1.453,-1.4536,-1.4602,-1.4602,-1.4621,-1.4621,-1.4621]},{"header":{"parameterUnit":"m.s-1","parameterCategory":1,"la1":30.2991,"la2":30.254,"lo1":-89.0895,"lo2":-89.0444,"dy":0.0017,"dx":0.0017,"nx":28,"ny":28,"refTime":"2024-03-26T09:00:00:Z","depth":0,"parameterNumber":3,"parameterNumberName":"V-component_of_WINDS"},"data":[0,0,0,0,0,0,0,0,0,0,0,0,0,0,0,0,0,0,0,0,0,0,0,0,0,0,0,0,0,0,0,0,0,0,0,0,0,0,0,0,0,0,0,0,0,0,0,0,0,0,0,0,0,0,0,0,0,0,-6.6738,-6.674,0,-6.6937,-6.6939,-6.6941,-6.6918,-6.6915,-6.6912,-6.6909,-6.7111,-6.712,-6.7128,0,0,0,0,0,0,0,0,0,0,0,0,0,-6.634,-6.6347,-6.6738,-6.6741,-6.6743,-6.6936,-6.6939,-6.6942,-6.6919,-6.6915,-6.6911,-6.6907,-6.7109,-6.7118,-6.7129,0,0,0,0,0,0,0,0,0,0,0,0,0,-6.6523,-6.635,-6.6738,-6.6755,-6.6758,-6.6936,-6.6939,-6.6942,-6.692,-6.6915,-6.691,-6.6906,-6.7105,-6.7118,-6.713,-6.7303,0,0,-6.7168,-6.7174,0,0,0,0,0,0,0,0,-6.6513,-6.6538,-6.675,-6.6754,-6.6758,-6.6898,-6.6873,-6.7063,-6.6921,-6.6858,-6.6909,-6.6903,-6.7044,-6.7061,-6.7109,-6.7312,-6.7321,-6.7169,-6.7177,-6.7182,-6.7186,0,0,0,0,0,0,0,-6.65,-6.6529,-6.6817,-6.6753,-6.6758,-6.6753,-6.6774,-6.6909,-6.6976,-6.6863,-6.6862,-6.6886,-6.7045,-6.7097,-6.7114,-6.7324,-6.7169,-6.718,-6.7188,-6.7193,-6.7681,-6.7686,0,0,0,0,0,0,-6.6483,-6.6518,-6.681,-6.6822,-6.6621,-6.6764,-6.6787,-6.6858,-6.6974,-6.6987,-6.689,-6.6884,-6.7078,-6.7099,-6.7121,-6.7332,-6.7182,-6.7194,-6.7201,-6.7676,-6.7682,-6.7688,0,0,0,0,0,0,-6.6474,-6.6509,-6.6802,-6.667,-6.6707,-6.6776,-6.6855,-6.6864,-6.6916,-6.6994,-6.7006,-6.693,-6.7075,-6.7103,-6.7258,-6.7339,-6.72,-6.7211,-6.7669,-6.7678,-6.7685,-6.7756,0,0,0,0,0,0,-6.6463,-6.6506,-6.6572,-6.6672,-6.6714,-6.6936,-6.686,-6.6872,-6.6938,-6.6932,-6.7035,-6.7048,-6.7073,-6.724,-6.7271,-6.7354,-6.7221,-6.7662,-6.7673,-6.7683,-6.7747,-6.7765,-6.7781,0,0,0,0,0,-6.6449,-6.6583,-6.6576,-6.6611,-6.6798,-6.6941,-6.6965,-6.6993,-6.6944,-6.7011,-6.7062,-6.7044,-6.7325,-6.7256,-6.729,-6.7378,-6.7657,-6.767,-6.7682,-6.7739,-6.7762,-6.7781,0,0,0,0,0,0,-6.649,-6.6597,-6.6589,-6.676,-6.6842,-6.6937,-6.7022,-6.7016,-6.7112,-6.7103,-6.7133,-6.7156,-6.7313,-6.7361,-6.7282,-6.7553,-6.7485,-6.7504,-6.7516,-6.7539,-6.7556,-6.7541,-6.7231,0,0,0,0,0,-6.6519,-6.6626,-6.6713,-6.6856,-6.6897,-6.6953,-6.7016,-6.703,-6.7116,-6.715,-6.7212,-6.7296,-6.7404,-6.7473,-6.7576,-6.7753,-6.7776,-6.7831,-6.7848,-6.7862,-6.788,-6.7979,-6.8005,-6.7728,-6.7728,-6.7728,0,0,-6.658,-6.6652,-6.6717,-6.6866,-6.6931,-6.7042,-6.6982,-6.7101,-6.7184,-6.7168,-6.7319,-6.7368,-6.7463,-6.7631,-6.7708,-6.7676,-6.7961,-6.7878,-6.7889,-6.7898,-6.7994,-6.802,-6.8044,-6.7737,-6.7735,-6.7734,0,0,-6.6748,-6.6812,-6.6939,-6.7006,-6.7106,-6.7143,-6.7173,-6.727,-6.7302,-6.7454,-6.7446,-6.7544,-6.7728,-6.7797,-6.7856,-6.8054,-6.8042,-6.8086,-6.8178,-6.8274,-6.8296,-6.8316,-6.8388,-6.8413,-6.8103,-6.8103,-6.8103,0,-6.6811,-6.6978,-6.7005,-6.7127,-6.7193,-6.7185,-6.7314,-6.7378,-6.7506,-6.7552,-6.7514,-6.7747,-6.781,-6.7995,-6.8043,-6.8091,-6.8128,-6.8075,-6.8291,-6.8311,-6.8329,-6.8398,-6.8425,-6.8108,-6.8107,-6.8107,-6.8106,0,-6.7051,-6.7167,-6.7258,-6.7383,-6.746,-6.7584,-6.7631,-6.7705,-6.7714,-6.7754,-6.791,-6.7987,-6.8106,-6.8151,-6.8159,-6.8338,-6.8315,-6.8284,-6.8216,-6.836,-6.8426,-6.8452,-6.8115,-6.8113,-6.8112,-6.811,0,0,-6.725,-6.739,-6.7423,-6.7481,-6.7592,-6.7682,-6.7807,-6.7925,-6.7989,-6.8078,-6.8184,-6.8341,-6.8314,-6.8381,-6.8398,-6.8482,-6.8636,-6.8441,-6.8444,-6.8476,-6.884,-6.8864,-6.8894,-6.8629,-6.8634,-6.8638,-6.8833,0,-6.743,-6.7652,-6.7681,-6.7878,-6.7986,-6.7981,-6.8091,-6.8171,-6.8213,-6.8311,-6.8357,-6.8469,-6.8423,-6.8464,-6.8548,-6.86,-6.871,-6.8586,-6.8729,-6.8734,-6.8706,-6.8928,-6.8953,-6.9133,-6.8858,-6.8862,-6.8866,0,-6.7669,-6.7767,-6.7975,-6.8073,-6.812,-6.8217,-6.8329,-6.8423,-6.8514,-6.8539,-6.8615,-6.8622,-6.8752,-6.8679,-6.8859,-6.8775,-6.8835,-6.887,-6.8877,-6.8892,-6.8809,-6.895,-6.9191,-6.9218,-6.8906,-6.8903,-6.89,0,-6.7795,-6.7978,-6.8127,-6.8177,-6.8295,-6.8364,-6.8416,-6.8503,-6.8572,-6.867,-6.8716,-6.8826,-6.8888,-6.8974,-6.901,-6.8953,-6.919,-6.9119,-6.9215,-6.9214,-6.9266,-6.9262,-6.952,-6.9302,-6.9302,-6.9301,-6.9301,0,-6.7994,-6.8122,-6.8186,-6.8278,-6.8421,-6.8454,-6.8596,-6.8645,-6.8723,-6.8825,-6.8827,-6.8922,-6.8964,-6.9066,-6.9096,-6.9242,-6.9269,-6.9294,-6.93,-6.9294,-6.9292,-6.9335,-6.9324,-6.9309,-6.9307,-6.9306,-6.9304,0,-6.8159,-6.8207,-6.8369,-6.8469,-6.8497,-6.8598,-6.8683,-6.8773,-6.8814,-6.8943,-6.8975,-6.9041,-6.9161,-6.9206,-6.9353,-6.9373,-6.9543,-6.9539,-6.9513,-6.9515,-6.9609,-6.96,-6.9905,-6.9948,-6.97,-6.9703,-6.9705,0,-6.8283,-6.8382,-6.8492,-6.8561,-6.8616,-6.8727,-6.8799,-6.8835,-6.891,-6.9023,-6.9099,-6.9219,-6.9318,-6.9511,-6.9572,-6.9685,-6.9684,-6.9783,-6.9701,-6.9693,-6.9688,-6.9682,-6.9693,-6.9799,-6.9801,-6.9803,-6.9805,0,-6.8499,-6.8519,-6.8622,-6.8736,-6.8822,-6.8912,-6.9,-6.9056,-6.9106,-6.919,-6.9314,-6.9391,-6.9542,-6.9662,-6.9778,-6.9832,-6.9828,-6.983,-6.9859,-6.9855,-6.9836,-6.985,-6.9556,-6.9823,-6.9821,-6.982,-6.9819,-6.9818,-6.8649,-6.8738,-6.883,-6.8946,-6.9016,-6.9099,-6.9189,-6.9243,-6.9347,-6.9473,-6.9488,-6.9622,-6.9713,-6.9869,-6.9929,-7.0034,-7.0008,-7.0048,-7.0059,-7.0069,-7.0077,-6.9819,-7.0055,-7.0055,-7.0054,-7.0054,-7.0054,0,-6.8867,-6.8926,-6.9033,-6.9157,-6.9249,-6.9237,-6.9335,-6.9412,-6.953,-6.9616,-6.9713,-6.9857,-6.9975,-7.0045,-7.0163,-7.0234,-7.0236,-7.0264,-7.026,-7.0273,-7.0093,-7.0057,-7.0262,-7.0262,-7.0261,-7.0261,-7.0261,-7.0261,-6.8991,-6.9141,-6.9172,-6.9357,-6.9416,-6.9548,-6.9605,-6.9682,-6.975,-6.9911,-7.0009,-7.0055,-7.0135,-7.0259,-7.0367,-7.0385,-7.0429,-7.046,-7.0476,-7.0307,-7.0285,-7.0265,-7.0232,-7.0469,-7.0469,-7.0647,-7.0649,-7.065]}]]